FIN6AY EKCH-EFHK

Flight info

Callsign FIN6AY
Flight time 1h 16m
Altitude 37000
Route KEMAX Q44 IDPAL DCT MOVIS DCT ALAMI DCT OKEVU DCT EVADI Y370 DIVAM
Aircraft A320/M-SDE3FGHIRWY/LB1

Departure

Time 2026-05-04 12:01
Airport Copenhagen Kastrup Airport (EKCH)

Arrival

Time 2026-05-04 13:17
Airport Helsinki Vantaa Airport (EFHK)
Time Latitude Longitude Altitude Speed Heading
2026-05-04 11:12 55.62900 12.63872 24 ft 0 kts 13°
2026-05-04 11:51 55.62894 12.63869 24 ft 2 kts 13°
2026-05-04 11:51 55.62878 12.63861 24 ft 2 kts 20°
2026-05-04 11:52 55.62863 12.63850 24 ft 2 kts 34°
2026-05-04 11:52 55.62851 12.63830 24 ft 2 kts 75°
2026-05-04 11:52 55.62850 12.63803 24 ft 1 kts 101°
2026-05-04 11:52 55.62850 12.63796 24 ft 0 kts 102°
2026-05-04 11:55 55.62837 12.63897 24 ft 12 kts 109°
2026-05-04 11:55 55.62757 12.63941 26 ft 14 kts 207°
2026-05-04 11:56 55.62673 12.63854 24 ft 14 kts 179°
2026-05-04 11:56 55.62614 12.63969 25 ft 12 kts 122°
2026-05-04 11:56 55.62564 12.64102 25 ft 17 kts 125°
2026-05-04 11:56 55.62487 12.64305 24 ft 20 kts 126°
2026-05-04 11:57 55.62402 12.64454 24 ft 13 kts 172°
2026-05-04 11:57 55.62309 12.64411 25 ft 19 kts 195°
2026-05-04 11:57 55.62126 12.64282 23 ft 31 kts 207°
2026-05-04 11:57 55.61938 12.64125 24 ft 29 kts 205°
2026-05-04 11:58 55.61804 12.63968 24 ft 17 kts 216°
2026-05-04 11:58 55.61720 12.63944 25 ft 10 kts 178°
2026-05-04 11:58 55.61673 12.63948 25 ft 2 kts 176°
2026-05-04 11:58 55.61672 12.63948 25 ft 0 kts 176°
2026-05-04 11:59 55.61620 12.63954 29 ft 16 kts 176°
2026-05-04 12:00 55.61496 12.63869 30 ft 22 kts 221°
2026-05-04 12:00 55.61270 12.63518 26 ft 77 kts 221°
2026-05-04 12:00 55.60697 12.62633 26 ft 138 kts 221°
2026-05-04 12:00 55.59855 12.61331 182 ft 171 kts 223°
2026-05-04 12:01 55.58968 12.59972 962 ft 168 kts 225°
2026-05-04 12:01 55.58071 12.58584 1628 ft 180 kts 224°
2026-05-04 12:02 55.50238 12.61272 5536 ft 291 kts 107°
2026-05-04 12:03 55.49685 12.64749 6412 ft 297 kts 105°
2026-05-04 12:03 55.49470 12.68433 7265 ft 302 kts 83°
2026-05-04 12:03 55.50063 12.71967 8082 ft 304 kts 58°
2026-05-04 12:03 55.51407 12.74785 8870 ft 301 kts 32°
2026-05-04 12:04 55.53159 12.76823 9663 ft 304 kts 28°
2026-05-04 12:04 55.54974 12.78853 10247 ft 318 kts 27°
2026-05-04 12:04 55.56916 12.81015 10547 ft 341 kts 28°
2026-05-04 12:04 55.58949 12.83298 11158 ft 350 kts 28°
2026-05-04 12:05 55.61019 12.85643 11845 ft 357 kts 29°
2026-05-04 12:05 55.63124 12.88045 12544 ft 362 kts 29°
2026-05-04 12:05 55.65258 12.90487 13244 ft 368 kts 29°
2026-05-04 12:05 55.67417 12.92963 13934 ft 372 kts 29°
2026-05-04 12:06 55.69604 12.95478 14608 ft 377 kts 29°
2026-05-04 12:06 55.71816 12.98021 15274 ft 381 kts 29°
2026-05-04 12:06 55.74050 13.00586 15910 ft 385 kts 28°
2026-05-04 12:06 55.76317 13.03178 16532 ft 389 kts 28°
2026-05-04 12:07 55.78604 13.05796 17148 ft 393 kts 28°
2026-05-04 12:07 55.80916 13.08448 17748 ft 398 kts 28°
2026-05-04 12:07 55.83247 13.11135 18338 ft 401 kts 29°
2026-05-04 12:07 55.85600 13.13856 18915 ft 405 kts 29°
2026-05-04 12:08 55.87977 13.16612 19479 ft 409 kts 29°
2026-05-04 12:08 55.90377 13.19393 20037 ft 414 kts 29°
2026-05-04 12:08 55.92800 13.22198 20579 ft 418 kts 29°
2026-05-04 12:08 55.95248 13.25036 21114 ft 421 kts 29°
2026-05-04 12:09 55.97716 13.27906 21639 ft 425 kts 29°
2026-05-04 12:09 56.00202 13.30805 22153 ft 429 kts 29°
2026-05-04 12:09 56.02708 13.33737 22687 ft 432 kts 29°
2026-05-04 12:09 56.05228 13.36693 23202 ft 434 kts 29°
2026-05-04 12:10 56.06942 13.38703 23517 ft 437 kts 29°
2026-05-04 12:10 56.10322 13.42691 24134 ft 443 kts 32°
2026-05-04 12:10 56.12698 13.46264 24573 ft 450 kts 43°
2026-05-04 12:10 56.14109 13.49110 24870 ft 455 kts 50°
2026-05-04 12:11 56.15964 13.53738 25284 ft 459 kts 53°
2026-05-04 12:11 56.17809 13.58428 25681 ft 462 kts 53°
2026-05-04 12:11 56.19672 13.63162 26051 ft 465 kts 53°
2026-05-04 12:11 56.21542 13.67918 26441 ft 468 kts 53°
2026-05-04 12:12 56.23424 13.72713 26805 ft 471 kts 53°
2026-05-04 12:12 56.25315 13.77540 27160 ft 474 kts 53°
2026-05-04 12:12 56.27217 13.82405 27521 ft 477 kts 53°
2026-05-04 12:12 56.29130 13.87299 27868 ft 479 kts 53°
2026-05-04 12:13 56.31050 13.92220 28214 ft 482 kts 53°
2026-05-04 12:14 56.44701 14.27571 30321 ft 499 kts 53°
2026-05-04 12:15 56.46681 14.32742 30588 ft 501 kts 53°
2026-05-04 12:15 56.48676 14.37920 30832 ft 503 kts 53°
2026-05-04 12:15 56.50690 14.43119 31087 ft 505 kts 53°
2026-05-04 12:15 56.52740 14.48397 31338 ft 507 kts 53°
2026-05-04 12:16 56.54736 14.53549 31665 ft 506 kts 53°
2026-05-04 12:16 56.56781 14.58846 32011 ft 505 kts 53°
2026-05-04 12:16 56.58787 14.64072 32337 ft 505 kts 53°
2026-05-04 12:16 56.60793 14.69313 32639 ft 505 kts 53°
2026-05-04 12:17 56.62793 14.74549 32944 ft 505 kts 53°
2026-05-04 12:17 56.64794 14.79797 33248 ft 505 kts 53°
2026-05-04 12:17 56.66790 14.85048 33571 ft 504 kts 53°
2026-05-04 12:17 56.68779 14.90288 33866 ft 504 kts 53°
2026-05-04 12:18 56.70770 14.95548 34160 ft 504 kts 53°
2026-05-04 12:18 56.72754 15.00802 34472 ft 503 kts 54°
2026-05-04 12:18 56.74730 15.06047 34777 ft 502 kts 54°
2026-05-04 12:18 56.76703 15.11295 35072 ft 501 kts 54°
2026-05-04 12:19 56.78670 15.16538 35349 ft 500 kts 54°
2026-05-04 12:19 56.80633 15.21771 35615 ft 499 kts 54°
2026-05-04 12:19 56.82591 15.26996 35853 ft 499 kts 54°
2026-05-04 12:19 56.84546 15.32232 36103 ft 498 kts 54°
2026-05-04 12:20 56.86494 15.37462 36343 ft 498 kts 54°
2026-05-04 12:20 56.88443 15.42699 36562 ft 498 kts 54°
2026-05-04 12:20 56.90385 15.47934 36766 ft 497 kts 55°
2026-05-04 12:20 56.92307 15.53134 36819 ft 491 kts 55°
2026-05-04 12:21 56.96098 15.63431 36810 ft 485 kts 55°
2026-05-04 12:21 56.99854 15.73672 36814 ft 484 kts 55°
2026-05-04 12:22 57.03613 15.83938 36803 ft 484 kts 55°
2026-05-04 12:22 57.07358 15.94203 36803 ft 484 kts 55°
2026-05-04 12:23 57.11113 16.04572 36805 ft 484 kts 56°
2026-05-04 12:23 57.14831 16.14881 36806 ft 483 kts 56°
2026-05-04 12:24 57.18547 16.25209 36806 ft 483 kts 56°
2026-05-04 12:24 57.22304 16.35503 36803 ft 482 kts 51°
2026-05-04 12:25 57.26521 16.45128 36798 ft 482 kts 50°
2026-05-04 12:25 57.30741 16.54761 36797 ft 482 kts 50°
2026-05-04 12:26 57.34942 16.64433 36795 ft 482 kts 50°
2026-05-04 12:26 57.39126 16.74123 36791 ft 482 kts 50°
2026-05-04 12:27 57.43320 16.83817 36787 ft 482 kts 50°
2026-05-04 12:27 57.47509 16.93536 36781 ft 482 kts 50°
2026-05-04 12:28 57.51683 17.03285 36784 ft 482 kts 50°
2026-05-04 12:28 57.55842 17.13046 36790 ft 482 kts 50°
2026-05-04 12:29 57.60000 17.22839 36793 ft 482 kts 51°
2026-05-04 12:29 57.64156 17.32657 36796 ft 482 kts 51°
2026-05-04 12:30 57.68334 17.42568 36802 ft 482 kts 51°
2026-05-04 12:30 57.72474 17.52441 36798 ft 482 kts 51°
2026-05-04 12:31 57.76605 17.62338 36798 ft 482 kts 51°
2026-05-04 12:31 57.80736 17.72261 36798 ft 483 kts 51°
2026-05-04 12:32 57.86909 17.87189 36802 ft 482 kts 51°
2026-05-04 12:33 57.91011 17.97162 36811 ft 483 kts 51°
2026-05-04 12:33 57.95119 18.07171 36813 ft 482 kts 52°
2026-05-04 12:34 57.99211 18.17183 36811 ft 482 kts 52°
2026-05-04 12:34 58.03296 18.27220 36812 ft 482 kts 52°
2026-05-04 12:35 58.07371 18.37282 36811 ft 482 kts 52°
2026-05-04 12:35 58.11435 18.47371 36805 ft 482 kts 52°
2026-05-04 12:36 58.15488 18.57470 36805 ft 482 kts 52°
2026-05-04 12:36 58.19534 18.67598 36799 ft 482 kts 52°
2026-05-04 12:37 58.23575 18.77755 36794 ft 483 kts 52°
2026-05-04 12:37 58.27620 18.87941 36793 ft 482 kts 52°
2026-05-04 12:38 58.31675 18.98211 36787 ft 483 kts 52°
2026-05-04 12:38 58.35691 19.08446 36783 ft 483 kts 53°
2026-05-04 12:39 58.39693 19.18703 36783 ft 483 kts 53°
2026-05-04 12:39 58.43706 19.28991 36775 ft 483 kts 53°
2026-05-04 12:40 58.47706 19.39296 36774 ft 483 kts 53°
2026-05-04 12:40 58.51692 19.49634 36772 ft 483 kts 53°
2026-05-04 12:41 58.55667 19.59974 36773 ft 482 kts 53°
2026-05-04 12:41 58.59643 19.70347 36773 ft 483 kts 53°
2026-05-04 12:42 58.63611 19.80753 36766 ft 483 kts 53°
2026-05-04 12:42 58.66896 19.89416 36767 ft 483 kts 53°
2026-05-04 12:43 58.70872 19.99929 36767 ft 483 kts 53°
2026-05-04 12:43 58.74812 20.10390 36766 ft 483 kts 53°
2026-05-04 12:44 58.78744 20.20887 36770 ft 483 kts 54°
2026-05-04 12:44 58.82668 20.31434 36766 ft 484 kts 54°
2026-05-04 12:45 58.86596 20.41987 36764 ft 485 kts 54°
2026-05-04 12:45 58.90520 20.52584 36761 ft 484 kts 54°
2026-05-04 12:46 58.94426 20.63212 36763 ft 485 kts 54°
2026-05-04 12:46 58.98325 20.73869 36764 ft 485 kts 54°
2026-05-04 12:47 59.02222 20.84556 36766 ft 485 kts 54°
2026-05-04 12:47 59.06078 20.95321 36765 ft 486 kts 57°
2026-05-04 12:48 59.09641 21.06468 36763 ft 485 kts 59°
2026-05-04 12:48 59.13067 21.17798 36755 ft 485 kts 60°
2026-05-04 12:49 59.16533 21.29104 36754 ft 486 kts 59°
2026-05-04 12:49 59.20068 21.40432 36749 ft 486 kts 59°
2026-05-04 12:50 59.23577 21.51710 36741 ft 486 kts 59°
2026-05-04 12:50 59.27060 21.63027 36741 ft 486 kts 59°
2026-05-04 12:51 59.30530 21.74374 36736 ft 486 kts 59°
2026-05-04 12:51 59.33994 21.85769 36732 ft 487 kts 59°
2026-05-04 12:52 59.37450 21.97182 36731 ft 487 kts 59°
2026-05-04 12:52 59.40899 22.08605 36727 ft 487 kts 59°
2026-05-04 12:53 59.44345 22.20067 36712 ft 488 kts 60°
2026-05-04 12:53 59.47790 22.31594 36706 ft 489 kts 60°
2026-05-04 12:54 59.51231 22.43166 36706 ft 491 kts 60°
2026-05-04 12:54 59.54683 22.54808 36106 ft 491 kts 60°
2026-05-04 12:54 59.56392 22.60600 35494 ft 490 kts 60°
2026-05-04 12:55 59.58097 22.66411 34906 ft 488 kts 60°
2026-05-04 12:55 59.59794 22.72208 34321 ft 487 kts 60°
2026-05-04 12:55 59.61482 22.77991 33792 ft 484 kts 61°
2026-05-04 12:55 59.63156 22.83741 33275 ft 482 kts 61°
2026-05-04 12:56 59.64816 22.89466 32768 ft 479 kts 61°
2026-05-04 12:56 59.66468 22.95176 32276 ft 477 kts 61°
2026-05-04 12:56 59.68111 23.00848 31786 ft 474 kts 61°
2026-05-04 12:56 59.69747 23.06500 31294 ft 471 kts 61°
2026-05-04 12:57 59.71392 23.12192 30819 ft 469 kts 62°
2026-05-04 12:57 59.73004 23.17783 30333 ft 466 kts 62°
2026-05-04 12:57 59.74601 23.23350 29860 ft 464 kts 62°
2026-05-04 12:57 59.76188 23.28902 29397 ft 461 kts 62°
2026-05-04 12:58 59.77759 23.34422 28954 ft 458 kts 62°
2026-05-04 12:58 59.79319 23.39910 28502 ft 455 kts 62°
2026-05-04 12:58 59.80869 23.45361 28096 ft 451 kts 62°
2026-05-04 12:58 59.82404 23.50770 27680 ft 448 kts 62°
2026-05-04 12:59 59.83927 23.56148 27247 ft 445 kts 62°
2026-05-04 12:59 59.85441 23.61498 26826 ft 442 kts 62°
2026-05-04 12:59 59.86941 23.66811 26399 ft 439 kts 62°
2026-05-04 12:59 59.88423 23.72084 25983 ft 435 kts 62°
2026-05-04 13:00 59.89894 23.77342 25557 ft 432 kts 62°
2026-05-04 13:00 59.91325 23.82576 25160 ft 427 kts 66°
2026-05-04 13:00 59.92503 23.87969 24766 ft 422 kts 69°
2026-05-04 13:00 59.93647 23.93337 24353 ft 419 kts 69°
2026-05-04 13:01 59.94778 23.98663 23924 ft 416 kts 69°
2026-05-04 13:01 59.95899 24.03965 23498 ft 413 kts 69°
2026-05-04 13:01 59.97005 24.09223 23063 ft 410 kts 69°
2026-05-04 13:01 59.98107 24.14466 22633 ft 408 kts 69°
2026-05-04 13:02 59.99199 24.19658 22221 ft 405 kts 69°
2026-05-04 13:02 60.00285 24.24841 21804 ft 403 kts 69°
2026-05-04 13:02 60.01363 24.29984 21390 ft 401 kts 69°
2026-05-04 13:02 60.02437 24.35113 20984 ft 398 kts 69°
2026-05-04 13:03 60.03503 24.40206 20597 ft 396 kts 68°
2026-05-04 13:03 60.04563 24.45272 20199 ft 394 kts 68°
2026-05-04 13:03 60.05612 24.50317 19801 ft 392 kts 68°
2026-05-04 13:03 60.06637 24.55270 19419 ft 390 kts 69°
2026-05-04 13:04 60.07669 24.60276 19034 ft 388 kts 69°
2026-05-04 13:04 60.08694 24.65263 18662 ft 385 kts 69°
2026-05-04 13:04 60.09729 24.70195 18264 ft 384 kts 64°
2026-05-04 13:04 60.11167 24.74666 17881 ft 380 kts 47°
2026-05-04 13:05 60.12938 24.78578 17480 ft 378 kts 45°
2026-05-04 13:05 60.14717 24.82445 17117 ft 376 kts 44°
2026-05-04 13:05 60.16486 24.86286 16751 ft 374 kts 45°
2026-05-04 13:05 60.18262 24.90151 16155 ft 370 kts 45°
2026-05-04 13:06 60.19974 24.93901 15514 ft 367 kts 45°
2026-05-04 13:06 60.21713 24.97719 14883 ft 363 kts 45°
2026-05-04 13:06 60.23416 25.01461 14245 ft 361 kts 45°
2026-05-04 13:06 60.25102 25.05174 13641 ft 359 kts 45°
2026-05-04 13:07 60.26770 25.08859 13030 ft 354 kts 46°
2026-05-04 13:07 60.28427 25.12526 12375 ft 353 kts 46°
2026-05-04 13:07 60.30078 25.16172 11670 ft 352 kts 46°
2026-05-04 13:07 60.31727 25.19821 10967 ft 351 kts 46°
2026-05-04 13:08 60.33362 25.23454 10266 ft 347 kts 46°
2026-05-04 13:08 60.34974 25.27046 9568 ft 343 kts 47°
2026-05-04 13:08 60.36571 25.30603 8863 ft 339 kts 47°
2026-05-04 13:08 60.38211 25.33964 8163 ft 333 kts 34°
2026-05-04 13:09 60.40280 25.35762 7462 ft 319 kts
2026-05-04 13:09 60.42392 25.35313 6763 ft 300 kts 334°
2026-05-04 13:09 60.44311 25.33775 6056 ft 296 kts 337°
2026-05-04 13:09 60.46326 25.32967 5352 ft 299 kts 358°
2026-05-04 13:10 60.48348 25.33651 4934 ft 288 kts
2026-05-04 13:10 60.50247 25.33722 4633 ft 261 kts 341°
2026-05-04 13:10 60.51755 25.32125 4388 ft 237 kts 310°
2026-05-04 13:10 60.52558 25.29385 4113 ft 220 kts 277°
2026-05-04 13:11 60.52466 25.26434 3838 ft 208 kts 244°
2026-05-04 13:11 60.51644 25.24105 3561 ft 203 kts 216°
2026-05-04 13:11 60.50349 25.23002 3291 ft 205 kts 196°
2026-05-04 13:11 60.48955 25.22383 3051 ft 203 kts 193°
2026-05-04 13:12 60.47601 25.21845 2994 ft 191 kts 193°
2026-05-04 13:12 60.46328 25.21354 2998 ft 183 kts 193°
2026-05-04 13:12 60.45091 25.20881 3001 ft 180 kts 193°
2026-05-04 13:12 60.43852 25.20397 2999 ft 179 kts 196°
2026-05-04 13:13 60.42758 25.19317 2936 ft 176 kts 219°
2026-05-04 13:13 60.41908 25.17540 2720 ft 176 kts 227°
2026-05-04 13:13 60.41115 25.15761 2480 ft 164 kts 228°
2026-05-04 13:13 60.40363 25.14082 2276 ft 159 kts 228°
2026-05-04 13:14 60.39619 25.12428 2070 ft 158 kts 227°
2026-05-04 13:14 60.38881 25.10787 1863 ft 158 kts 228°
2026-05-04 13:14 60.38138 25.09135 1651 ft 158 kts 227°
2026-05-04 13:14 60.37397 25.07491 1443 ft 156 kts 227°
2026-05-04 13:15 60.36931 25.06459 1316 ft 146 kts 228°
2026-05-04 13:15 60.36284 25.05027 1119 ft 138 kts 227°
2026-05-04 13:15 60.35643 25.03607 942 ft 136 kts 227°
2026-05-04 13:15 60.35008 25.02203 762 ft 135 kts 228°
2026-05-04 13:16 60.34378 25.00810 585 ft 134 kts 228°
2026-05-04 13:16 60.33750 24.99417 406 ft 134 kts 228°
2026-05-04 13:16 60.33119 24.98031 234 ft 134 kts 227°
2026-05-04 13:16 60.32535 24.96735 175 ft 110 kts 228°
2026-05-04 13:17 60.32139 24.95865 177 ft 59 kts 227°
2026-05-04 13:17 60.31906 24.95378 174 ft 31 kts 212°
2026-05-04 13:17 60.31763 24.95246 174 ft 11 kts 198°
2026-05-04 13:17 60.31689 24.95198 172 ft 12 kts 195°
2026-05-04 13:18 60.31637 24.95281 170 ft 11 kts 90°
2026-05-04 13:18 60.31671 24.95392 172 ft 8 kts 45°
2026-05-04 13:18 60.31705 24.95463 172 ft 7 kts 46°
2026-05-04 13:18 60.31748 24.95559 172 ft 12 kts 48°
2026-05-04 13:19 60.31813 24.95706 171 ft 15 kts 47°
2026-05-04 13:19 60.31884 24.95861 171 ft 15 kts 47°
2026-05-04 13:19 60.31925 24.96025 172 ft 13 kts 103°
2026-05-04 13:19 60.31876 24.96128 169 ft 9 kts 132°
2026-05-04 13:20 60.31854 24.96244 167 ft 10 kts 93°
2026-05-04 13:20 60.31878 24.96364 167 ft 9 kts 52°
2026-05-04 13:20 60.31916 24.96449 167 ft 8 kts 48°
2026-05-04 13:20 60.31946 24.96529 167 ft 5 kts 72°
2026-05-04 13:21 60.31933 24.96570 167 ft 6 kts 137°
2026-05-04 13:21 60.31910 24.96613 167 ft 2 kts 137°
2026-05-04 13:21 60.31908 24.96616 167 ft 0 kts 137°